Theta_e
310 310 310 310 309 309 309 309 310 310 311 312 312 312 312 313 313 313 313 314 314 313 313 312 312 313 313 313 314 314 314 314 315 314 313 312 312 312 313 314 315 315 314 314 314 313 312 312 312 312 312 312 312 312 312 312 311 311 311 311 311 312 312 313 312 313 314 313 314 318 320 320 321 321 322 323 324 323 322 322 322 322 322 321 320 320 320
310 309 309 309 308 309 309 309 309 310 311 311 312 312 312 313 313 312 312 315 315 314 313 313 312 313 312 312 312 313 313 313 313 313 313 312 312 311 312 313 314 314 313 314 314 313 312 312 311 311 311 311 311 312 312 311 311 310 310 310 310 310 310 310 311 311 312 312 313 316 318 318 319 319 320 322 323 323 323 323 323 322 323 323 321 320 321
309 309 308 308 308 309 309 309 309 310 310 311 311 312 312 312 312 312 313 316 315 313 312 313 312 312 312 311 312 312 311 312 313 313 312 312 312 311 312 312 313 313 312 313 314 313 312 311 311 310 310 310 311 311 310 310 309 309 308 309 310 310 309 309 309 309 310 311 311 312 314 316 318 318 319 320 321 322 322 323 323 322 322 323 322 321 321
308 308 308 308 308 308 308 309 309 309 310 311 311 311 312 312 312 312 313 313 313 312 311 312 311 311 311 311 311 311 311 311 311 312 312 312 312 312 312 312 311 312 311 312 312 312 311 310 310 310 309 309 310 311 310 309 308 308 309 309 309 310 309 309 309 309 309 309 310 310 312 314 316 317 317 319 320 320 320 321 322 322 322 322 322 321 321
308 308 307 308 308 308 308 309 310 310 310 310 310 310 310 311 311 311 311 311 311 312 312 312 312 312 311 311 311 311 312 311 311 311 312 312 312 312 312 311 311 310 311 311 311 311 310 309 309 309 308 308 309 310 309 309 309 309 309 309 309 310 309 309 310 310 309 309 310 310 311 311 313 316 317 317 318 318 319 319 319 320 320 320 321 320 319
308 308 307 308 308 308 309 309 310 310 310 310 310 310 310 311 310 311 311 311 311 311 311 312 312 312 312 313 313 312 313 313 313 313 312 311 312 312 311 310 310 310 311 311 311 310 309 309 309 308 308 309 310 310 309 310 309 309 309 309 309 310 309 309 309 310 310 310 310 310 310 310 311 313 315 317 317 317 317 318 318 318 318 319 320 319 319
307 307 307 308 308 308 309 309 309 309 309 309 309 309 309 309 310 311 311 310 310 310 311 311 311 312 312 312 312 311 312 312 313 312 311 311 312 312 310 310 310 310 311 310 310 310 309 308 308 308 308 309 309 309 309 309 309 309 309 309 309 308 308 309 309 310 310 310 310 310 310 310 311 311 314 316 316 316 316 317 317 317 317 318 319 318 317
306 306 306 307 308 308 308 309 309 309 308 307 307 307 308 308 309 310 309 309 309 310 310 310 310 310 311 310 309 309 310 311 311 311 311 311 311 310 310 310 310 311 310 309 309 309 308 308 308 308 308 308 308 308 309 309 309 309 308 308 308 308 308 308 309 310 310 309 310 310 310 310 310 311 312 315 316 316 316 316 316 316 316 317 318 317 316
306 306 306 307 307 307 308 309 309 309 309 308 308 308 308 308 309 309 308 308 309 309 308 308 308 309 309 309 308 307 308 308 308 309 310 311 311 310 310 310 310 309 308 308 308 308 308 308 308 308 308 308 308 308 308 308 308 308 308 308 307 307 307 307 308 309 309 309 309 309 309 310 310 311 312 314 315 316 316 315 316 315 315 316 317 316 315
305 305 305 306 307 307 308 308 308 308 308 309 308 307 307 307 307 307 307 307 307 307 307 307 307 307 308 308 307 306 306 307 306 307 308 309 310 310 309 309 308 308 307 307 307 307 307 307 307 307 308 308 308 308 308 308 308 308 307 307 307 307 306 307 307 309 309 309 309 309 309 309 310 311 312 313 315 315 315 315 315 315 315 315 315 315 313
305 305 305 306 306 307 308 308 307 306 306 307 307 306 305 306 306 305 305 306 306 306 306 306 306 306 307 307 307 306 306 306 305 305 306 307 307 307 307 307 307 306 306 306 305 305 306 306 307 307 307 307 307 307 307 307 307 307 307 307 307 306 306 306 306 307 308 309 309 309 310 309 310 310 311 313 314 314 314 314 314 314 314 314 314 313 312
304 305 305 304 305 307 308 307 305 305 305 305 306 305 305 304 305 304 304 304 305 305 305 306 305 305 306 306 306 305 305 305 306 305 305 305 306 306 305 306 305 305 306 305 305 305 306 306 306 306 306 306 306 306 306 306 307 307 307 307 306 306 305 305 306 307 307 308 309 310 310 310 310 311 311 312 313 313 313 313 312 312 313 313 312 311 309
304 304 304 304 304 306 306 305 304 305 304 304 304 304 303 303 304 304 304 303 303 304 304 304 304 305 305 305 304 304 304 304 305 305 305 305 305 305 305 305 304 304 305 305 305 305 305 306 305 305 306 306 306 306 306 306 306 306 307 306 306 305 305 304 305 305 306 307 308 309 310 310 310 310 310 311 312 312 312 312 313 313 312 311 310 308 306
303 303 303 303 304 304 304 303 303 304 304 303 303 302 302 302 303 303 303 303 303 303 303 303 303 303 304 303 303 304 304 303 304 304 304 304 304 304 304 304 304 304 304 304 304 304 305 305 305 305 305 306 306 306 306 306 306 306 305 306 305 305 305 304 304 305 306 306 307 308 309 310 310 310 310 310 311 312 312 313 313 313 311 309 307 305 304
302 302 302 302 303 302 302 302 302 302 302 302 301 301 301 302 302 301 302 302 302 302 302 302 302 302 303 303 303 303 303 303 303 304 304 304 304 304 304 304 303 303 303 303 303 303 303 303 304 304 305 305 305 306 306 306 305 305 305 305 305 305 304 304 304 305 306 306 307 307 309 310 310 310 310 310 311 312 312 312 311 310 309 308 306 304 302
301 301 302 302 301 301 301 301 301 301 301 301 300 300 300 300 301 301 301 301 301 301 301 301 301 301 301 302 302 302 302 302 302 303 303 303 303 303 303 303 303 303 302 303 303 303 302 303 303 304 304 305 305 305 305 305 305 305 305 305 305 304 304 304 304 305 306 307 306 307 308 310 310 311 311 311 312 312 311 310 309 308 306 304 303 301 301
300 300 301 301 300 300 300 300 300 300 300 300 300 299 299 299 299 299 300 300 300 300 300 300 300 300 301 301 301 301 302 301 302 302 303 303 303 303 303 302 302 302 302 302 302 302 302 303 303 303 304 304 305 305 305 305 305 305 305 305 305 305 305 305 305 305 306 307 307 307 308 309 310 310 310 311 310 309 309 309 308 306 304 302 301 300 300
299 299 299 299 299 299 299 299 299 299 299 299 299 299 298 298 299 299 299 299 299 299 299 299 299 299 300 300 300 300 300 301 301 301 302 302 302 302 302 302 302 302 302 302 302 302 303 303 303 303 303 304 304 304 304 305 304 304 304 304 304 305 305 305 306 305 306 306 307 307 307 308 309 309 310 310 308 307 307 307 306 304 302 301 300 300 300
298 298 298 298 298 298 298 298 298 298 298 298 298 298 298 298 298 298 298 298 298 298 298 298 298 299 299 299 299 299 299 299 300 301 301 301 301 301 301 301 301 301 301 302 302 302 303 302 302 302 303 303 303 303 303 303 303 303 303 303 303 303 304 304 305 306 306 306 307 307 307 308 309 309 309 309 307 306 306 306 304 302 301 300 299 299 298
297 297 297 297 298 298 298 297 297 298 298 298 298 298 297 298 298 298 298 298 298 298 298 298 298 298 298 298 298 298 299 299 299 300 301 301 301 301 301 301 301 301 301 302 302 302 303 302 302 302 302 302 302 302 302 302 302 302 302 303 303 303 303 304 304 305 305 306 307 307 307 308 308 307 307 307 306 305 305 304 301 300 299 298 298 298 298
296 296 297 297 297 297 297 297 297 297 297 297 297 298 297 297 297 297 297 298 298 298 298 297 298 297 298 298 298 298 298 298 299 300 300 300 300 300 300 300 301 301 301 301 302 302 302 302 302 302 302 302 302 302 302 302 302 302 302 303 303 303 303 303 304 304 305 306 307 307 307 306 305 305 305 305 304 304 303 301 300 299 299 298 298 299 299
296 296 296 296 296 296 296 297 297 297 298 298 298 298 297 297 298 298 298 298 299 299 299 299 299 298 298 298 298 298 298 298 299 300 300 300 300 300 300 300 301 301 301 302 302 302 303 302 302 302 302 302 302 302 302 302 302 302 302 303 303 303 303 303 304 304 304 305 306 307 306 304 302 302 302 303 303 301 300 299 299 299 298 298 299 299 299
296 296 296 297 297 296 297 298 298 298 298 298 298 298 298 298 299 299 299 298 299 300 300 300 300 299 299 299 300 299 298 299 300 300 300 300 301 300 301 301 301 302 302 302 302 302 302 302 301 301 301 302 302 302 302 302 302 302 302 303 303 303 304 304 304 305 305 306 306 305 304 302 300 299 299 299 299 298 297 297 298 298 298 298 298 298 297
297 297 297 297 298 298 298 298 298 298 298 298 298 299 299 299 299 299 299 298 299 299 299 300 300 300 300 300 300 299 299 300 300 300 301 301 300 300 300 301 301 301 301 301 301 301 301 301 301 302 302 302 302 302 302 302 302 302 303 303 303 303 304 304 304 305 306 306 305 304 302 301 299 298 297 296 295 296 296 297 297 297 298 298 297 297 296
297 297 297 298 298 298 298 298 298 299 299 299 298 298 298 299 299 299 298 298 299 299 299 299 300 299 299 300 300 299 300 300 300 300 300 300 299 299 300 300 300 301 300 300 301 301 301 301 301 301 301 301 301 302 302 302 302 302 303 303 303 303 304 304 305 306 306 305 303 302 301 300 299 297 296 295 294 294 294 295 295 296 296 296 295 294 293
297 297 297 297 297 297 298 298 298 298 298 298 298 298 299 299 299 299 299 299 300 300 299 299 299 299 299 299 299 299 299 299 299 299 299 299 299 299 299 299 299 300 300 300 300 300 300 300 300 300 300 301 301 301 301 302 302 302 303 303 303 303 304 305 306 306 305 303 301 301 300 299 298 297 296 296 295 294 293 293 293 293 293 293 292 292 291
297 297 297 297 297 297 297 297 297 297 298 299 298 299 300 300 299 299 300 300 299 299 299 299 299 298 299 299 298 298 298 298 298 298 298 298 298 298 298 298 299 298 299 299 299 299 299 299 299 299 299 299 300 300 301 301 302 303 303 303 304 304 305 305 306 305 303 301 300 300 299 298 297 296 295 295 294 294 293 293 293 292 292 291 291 291 291
296 296 297 297 297 296 296 297 297 298 299 298 298 299 299 298 298 298 298 298 298 298 298 298 297 297 297 297 297 297 297 297 297 297 297 297 297 297 297 297 297 297 298 298 298 298 298 298 298 299 299 299 300 300 301 302 302 303 304 305 305 305 305 305 304 303 300 299 299 299 299 297 296 295 294 295 295 294 294 294 294 293 293 292 291 290 290
296 296 297 297 297 297 297 297 298 298 298 297 297 298 297 297 297 296 296 296 296 297 296 296 296 296 296 296 295 295 296 296 296 295 295 295 295 295 295 296 296 296 297 297 298 298 298 298 299 299 299 300 300 301 301 302 303 304 304 304 304 304 304 303 302 301 300 299 299 299 298 297 296 295 295 295 296 295 295 295 295 295 294 293 291 291 291
296 297 297 297 297 298 297 297 297 297 296 296 296 296 296 296 295 295 295 295 295 294 294 294 294 294 294 294 293 293 293 293 293 293 293 293 293 293 293 294 295 295 296 297 297 297 298 298 299 299 299 299 300 301 301 302 303 303 303 303 302 302 302 302 301 300 300 299 298 298 297 297 297 296 296 296 296 297 297 297 296 296 295 294 294 294 293
296 297 297 297 297 297 297 297 296 296 295 294 294 294 294 294 294 294 294 294 294 293 293 293 293 292 292 292 292 292 291 291 291 291 291 291 292 292 292 293 294 294 294 294 295 295 296 297 298 299 299 298 299 299 300 300 300 301 301 301 301 301 301 300 300 299 299 298 297 297 297 297 297 297 297 297 297 298 298 297 297 297 297 296 296 296 296
296 296 296 297 297 296 296 296 295 294 294 294 294 294 294 294 294 293 293 293 293 293 292 292 292 291 291 291 290 290 290 290 290 290 291 291 291 292 292 292 292 292 292 292 293 293 294 295 296 298 299 298 298 298 298 298 298 299 299 299 299 299 299 299 298 298 297 297 297 297 297 297 297 297 297 297 298 298 298 298 298 298 298 297 297 297 296
296 296 296 296 295 295 295 295 294 294 294 294 294 294 294 294 294 293 293 293 292 292 291 291 291 290 290 290 290 290 290 290 290 290 290 291 291 291 291 291 292 291 292 292 292 293 293 294 295 297 299 299 298 298 298 298 298 298 298 298 298 298 298 297 297 297 297 297 297 297 297 297 297 298 298 298 298 298 298 298 298 298 298 298 296 295 295
296 296 296 295 295 295 295 294 294 294 293 293 293 294 294 293 293 293 293 292 292 291 291 290 290 290 290 290 290 289 290 290 290 290 290 291 291 291 291 291 291 291 291 292 292 292 293 294 295 297 298 299 299 298 298 298 298 298 298 298 298 298 297 297 297 297 297 298 298 298 298 298 298 298 298 298 298 298 298 298 298 298 298 297 295 293 293
296 296 296 295 295 295 295 294 294 293 293 293 293 293 293 293 293 293 292 292 291 291 290 290 290 290 290 290 289 289 289 289 289 289 289 290 290 290 291 291 291 290 290 291 291 292 293 293 294 296 297 298 299 299 299 298 298 298 298 297 298 298 298 297 298 298 298 298 298 298 298 298 298 298 298 298 298 298 298 298 298 297 297 296 294 292 291
296 296 296 295 295 295 294 294 294 294 293 293 293 294 293 293 293 292 292 292 291 290 290 290 290 290 290 290 290 289 289 289 289 289 289 289 289 290 290 290 290 290 290 289 290 291 292 293 294 295 296 297 298 298 299 298 298 298 297 297 298 298 298 298 298 298 298 298 297 297 298 298 298 299 299 298 298 298 298 297 297 297 297 296 295 293 292
296 296 295 295 295 295 294 294 294 294 294 293 293 293 293 293 292 292 292 291 291 290 290 290 290 291 291 290 290 289 289 288 289 289 289 289 289 289 289 289 289 289 289 289 289 290 292 293 294 295 296 296 297 298 298 298 298 298 297 297 297 298 298 298 298 298 297 297 297 297 298 298 298 298 298 298 298 297 297 297 296 296 295 295 295 295 294
295 295 295 295 295 295 295 295 294 294 294 293 293 292 292 292 292 291 291 291 290 290 290 290 290 291 291 291 290 290 289 288 288 289 289 289 289 289 289 288 288 288 288 288 288 289 291 293 294 295 296 296 296 297 297 297 298 297 297 297 297 298 298 298 298 298 298 298 298 298 298 298 298 297 297 296 296 295 295 295 295 295 295 295 294 294 294
295 295 294 295 295 294 294 294 294 293 293 293 292 292 291 291 291 291 291 291 290 290 290 291 291 291 292 291 291 290 289 288 288 289 289 289 289 289 289 288 288 287 287 287 287 288 290 292 294 295 295 295 296 297 297 297 297 297 297 296 297 297 297 297 297 297 296 296 296 296 296 296 296 296 296 295 294 294 293 293 294 294 295 294 294 294 293
295 295 295 295 295 294 294 294 293 292 292 292 292 292 291 290 290 290 291 291 290 290 290 290 290 291 292 291 291 291 290 289 288 288 289 289 289 289 288 288 287 287 287 287 287 287 289 290 292 294 294 294 295 296 296 297 296 296 296 296 296 296 297 297 296 296 296 295 295 295 294 294 294 294 294 294 294 294 293 293 293 294 294 293 293 293 292
295 295 295 295 295 294 294 293 293 292 292 292 292 291 291 290 290 290 290 290 290 290 290 289 289 290 291 291 291 291 291 290 289 289 289 289 289 289 288 288 287 287 287 287 287 287 288 289 290 291 292 293 294 294 295 296 296 296 295 295 295 295 295 295 295 296 296 296 295 295 295 294 294 293 293 293 293 293 293 293 293 293 293 292 292 292 291
295 295 295 295 295 294 294 293 292 292 292 291 291 291 291 290 290 289 289 289 290 290 290 290 289 289 290 290 290 291 291 291 290 289 289 288 288 288 288 287 287 287 287 287 287 287 288 288 288 289 291 292 292 293 294 295 295 295 295 294 294 294 294 294 294 294 295 295 295 295 294 294 293 293 292 292 292 292 292 292 292 291 291 291 291 291 290
295 295 295 295 295 294 294 293 292 292 291 291 291 291 291 290 290 289 289 289 289 289 290 289 290 290 289 289 289 290 290 290 290 290 289 288 287 287 287 287 286 286 287 287 287 287 287 288 288 289 290 291 292 293 293 294 294 294 294 294 294 294 294 294 294 293 293 294 294 293 293 293 293 292 292 292 292 291 291 291 290 290 290 290 290 289 289
295 296 296 295 295 294 293 293 292 292 292 291 291 291 291 290 290 289 289 289 288 288 289 289 289 289 289 289 289 289 289 289 289 289 289 289 287 286 286 286 286 286 286 287 287 287 287 287 288 288 289 290 291 291 292 293 293 292 292 292 293 293 293 293 293 293 292 292 292 292 292 292 291 291 291 291 290 290 289 289 289 288 288 288 288 288 287
296 296 296 295 295 294 293 293 292 292 292 291 291 290 290 290 290 289 289 289 288 288 288 288 288 289 289 289 289 288 288 288 288 288 288 288 287 286 285 285 285 285 286 287 287 287 287 287 287 288 289 289 290 291 291 291 291 291 291 291 291 291 291 291 291 291 292 292 291 291 291 291 290 290 290 289 289 288 288 288 288 287 287 287 286 286 285
297 297 296 295 294 294 293 292 292 292 292 292 291 290 290 290 290 289 289 289 288 288 288 288 288 288 288 288 289 288 288 287 287 287 287 287 286 285 285 285 285 285 285 286 286 286 286 286 287 287 288 289 289 290 290 290 290 290 290 290 290 290 290 290 289 289 290 290 290 290 290 290 290 289 288 288 288 287 287 287 287 287 286 286 285 285 284
297 296 295 295 293 293 292 292 291 292 292 292 292 291 290 290 289 289 289 288 288 288 287 287 287 287 287 287 288 288 288 288 287 287 287 286 286 285 285 285 285 285 285 285 285 285 285 286 286 287 287 288 288 289 289 289 289 289 289 288 289 289 289 289 289 288 288 288 289 289 289 289 288 288 288 287 287 287 287 286 286 286 286 285 285 284 284
296 296 295 294 293 292 292 292 292 293 292 292 291 291 290 289 289 289 289 289 289 288 288 287 287 287 287 286 286 287 287 287 287 286 286 286 286 285 285 284 285 286 286 286 285 285 285 285 286 286 287 287 288 288 287 287 287 287 287 287 287 287 287 287 288 288 288 288 288 288 288 288 288 288 287 287 287 286 286 285 285 285 285 285 285 284 283
295 295 294 293 293 293 292 292 293 293 292 291 291 290 290 290 290 290 289 289 289 289 288 288 288 287 287 286 286 286 286 286 286 286 285 285 285 285 284 284 284 285 286 287 286 285 284 285 285 285 286 286 287 287 287 286 286 286 286 286 285 285 285 286 286 286 286 287 287 287 287 287 287 287 286 286 286 286 285 285 284 284 284 284 283 283 283
295 294 294 293 293 293 292 292 293 293 292 291 291 291 291 291 291 291 290 289 289 289 288 288 288 287 287 287 286 286 286 286 286 285 285 285 284 284 284 284 284 284 286 286 286 285 285 285 285 285 285 285 285 285 286 286 285 285 285 285 285 285 284 285 285 285 285 285 286 286 286 286 286 285 285 285 285 285 285 284 284 284 284 283 283 283 282
294 294 294 294 293 293 293 293 293 293 292 292 291 291 291 291 291 290 289 289 290 290 289 288 288 287 287 286 286 286 286 286 285 285 285 285 285 284 284 284 284 284 285 285 286 285 285 284 284 284 285 285 284 284 284 285 285 284 284 284 284 284 284 284 284 284 284 284 284 284 285 285 285 285 284 284 284 284 284 284 283 283 283 283 283 283 282
294 294 294 294 293 293 293 293 293 293 292 292 291 291 291 291 290 289 288 288 289 289 289 288 288 287 287 287 286 285 285 285 285 285 285 285 285 284 284 284 284 284 285 285 285 285 285 284 284 284 284 284 284 284 284 284 284 284 284 283 283 283 283 283 283 283 283 284 283 283 283 284 284 284 283 283 283 283 283 283 283 282 282 282 283 283 282
Wind_Speed
16 17 17 17 17 17 16 17 18 18 18 19 17 15 16 15 11 12 14 15 14 13 11 11 9 7 9 9 8 9 8 8 8 8 8 7 6 6 6 5 5 6 7 7 7 7 7 8 8 8 9 10 10 10 10 10 10 10 10 10 9 8 7 7 7 5 4 4 4 5 5 4 4 4 6 8 11 14 15 16 18 19 19 18 20 23 24
15 17 17 17 17 17 17 19 20 19 19 21 20 19 20 19 17 18 18 18 17 14 13 13 11 9 8 7 7 9 9 10 10 10 9 8 7 7 6 6 6 6 6 7 7 7 6 6 7 7 6 7 7 8 8 9 9 8 8 8 7 6 6 5 5 5 4 3 3 4 5 5 5 5 6 7 9 11 13 15 17 19 19 18 19 21 22
13 15 17 18 18 18 19 20 21 20 20 20 19 19 19 18 19 19 17 15 13 12 12 13 13 13 12 11 12 11 10 12 12 11 10 10 9 8 7 6 6 6 6 6 6 7 6 5 5 5 4 5 5 5 5 6 6 6 5 5 3 3 4 5 5 5 5 5 5 5 6 6 6 7 7 9 9 10 11 12 14 16 17 17 20 23 23
12 12 15 18 18 19 21 21 21 21 19 18 17 17 16 15 16 17 15 13 10 10 11 12 13 14 15 16 16 14 13 13 13 13 12 11 9 8 8 7 6 6 6 6 5 5 5 4 4 4 3 3 5 5 4 4 5 4 3 2 1 0 1 3 4 3 4 5 5 6 6 7 7 8 9 10 10 11 11 9 10 12 13 14 17 19 20
11 13 15 16 15 15 15 13 14 17 18 18 19 18 18 17 15 14 13 11 11 11 11 11 12 13 14 15 13 11 12 13 12 11 11 11 9 7 7 8 7 6 5 6 5 4 3 2 3 3 2 2 3 3 3 3 4 3 2 2 1 1 1 2 3 3 3 4 5 6 6 7 8 9 10 10 11 10 10 9 9 9 10 12 11 13 15
11 14 15 13 12 13 10 4 5 9 13 15 15 15 16 15 12 10 11 12 13 12 10 10 11 11 11 9 6 5 7 7 7 9 10 10 9 7 6 7 6 5 4 4 4 3 2 2 2 2 1 2 2 2 2 2 2 1 1 1 2 2 2 3 3 3 3 4 5 6 7 8 9 10 10 10 10 10 10 9 9 9 11 13 13 15 17
10 11 11 12 12 11 7 3 3 5 7 8 10 12 13 11 10 11 13 13 12 10 8 9 9 9 8 5 4 4 4 4 4 8 10 8 6 7 7 6 4 4 3 2 2 1 1 1 1 2 1 1 0 1 1 1 1 1 2 2 2 2 3 4 3 3 3 5 6 7 8 9 10 10 11 11 11 11 10 10 10 11 11 13 16 19 17
9 9 9 11 10 9 7 5 4 4 7 8 9 11 12 9 7 9 11 11 9 7 7 7 7 9 9 6 3 3 4 4 4 6 7 6 6 8 7 5 3 1 0 1 1 1 1 1 2 2 2 1 2 2 2 3 3 3 3 3 3 3 4 5 4 4 4 6 7 8 9 9 10 11 11 11 11 11 11 11 11 11 12 13 16 16 13
8 9 10 10 10 11 9 4 1 3 5 6 6 8 10 8 6 7 9 9 9 8 8 8 7 8 9 8 4 2 4 4 5 6 5 2 3 6 6 5 4 4 4 4 3 1 2 3 3 4 4 4 4 5 5 5 4 4 4 4 4 5 5 6 5 5 6 7 8 8 9 10 11 11 11 10 11 11 11 11 11 11 12 12 12 12 14
7 9 9 9 10 9 3 3 5 5 5 6 5 6 7 4 4 7 8 7 9 10 9 9 8 7 8 8 3 1 1 1 4 5 5 3 1 2 3 5 6 7 7 6 4 3 4 5 5 5 5 5 6 7 7 7 6 6 6 6 6 6 7 6 6 7 7 8 9 9 10 10 10 11 11 10 11 11 11 11 11 11 11 10 8 11 14
7 9 8 8 9 4 3 5 4 5 6 8 7 7 5 2 6 8 8 7 9 10 9 9 8 7 7 5 2 3 4 4 3 4 5 3 4 4 5 7 8 8 7 8 8 7 7 7 6 6 7 8 9 9 9 9 9 8 8 7 7 8 8 8 8 8 8 9 9 9 9 9 10 10 11 11 11 11 11 11 11 10 11 10 10 12 15
9 9 8 8 6 0 5 4 4 5 5 6 6 6 2 4 6 7 8 8 9 9 9 9 8 8 6 4 3 4 5 6 6 7 7 6 7 9 9 10 10 10 10 11 11 10 8 8 8 8 9 10 10 11 11 11 11 10 9 9 10 10 11 11 10 10 10 10 10 9 9 9 9 10 11 11 11 11 12 12 11 9 8 10 13 14 14
9 9 9 8 4 2 5 5 5 5 5 4 6 5 3 6 7 7 8 9 10 10 10 8 7 8 7 6 6 7 7 8 9 9 10 10 11 12 13 12 12 12 13 14 13 11 10 10 10 10 10 11 12 12 12 12 12 11 11 11 12 12 13 13 13 13 12 11 11 11 11 10 10 11 12 12 12 12 12 11 10 7 8 14 15 15 14
8 8 9 9 5 2 7 8 6 6 6 4 4 5 7 8 9 10 10 10 10 10 11 9 8 9 11 11 10 11 11 11 10 10 12 14 15 15 15 15 15 15 15 15 14 13 13 12 12 12 12 13 13 13 13 13 13 12 12 13 14 14 15 15 14 14 13 13 13 13 12 11 12 12 12 13 12 11 10 6 4 9 14 17 17 16 14
8 8 9 9 4 2 7 9 6 4 4 5 6 8 9 10 10 11 11 11 10 10 11 11 11 12 13 13 13 13 14 14 13 14 15 16 16 17 18 18 18 18 17 17 16 16 16 15 15 14 14 15 14 14 15 15 14 14 15 15 15 16 16 16 16 15 15 14 15 14 13 12 12 12 12 13 12 10 6 6 12 15 16 17 17 16 14
4 7 7 4 2 3 7 8 6 6 7 8 9 9 10 11 11 11 10 10 11 12 11 12 13 13 14 15 15 15 15 15 15 16 17 18 19 20 20 21 21 20 20 19 19 18 18 17 17 16 15 16 16 16 16 15 15 15 16 16 17 18 18 17 17 16 16 16 16 15 14 12 12 12 12 10 7 6 8 11 14 15 16 16 16 15 14
5 7 8 7 8 9 10 8 8 10 11 10 11 12 11 11 11 11 11 12 13 13 13 14 14 14 15 16 16 16 16 16 17 18 20 21 22 22 23 24 24 23 23 22 21 20 20 19 18 17 17 17 18 18 17 16 16 16 17 17 17 18 18 18 18 17 17 17 16 15 14 12 12 12 10 5 6 8 10 12 15 17 16 16 16 15 14
8 10 11 12 12 12 11 10 10 12 12 12 12 13 12 12 11 11 11 13 14 14 15 16 15 16 17 18 18 18 18 18 19 20 22 24 25 25 25 25 25 25 25 25 24 23 22 21 20 20 19 19 19 19 18 18 18 19 19 19 19 19 19 19 18 18 18 17 16 16 14 13 12 11 8 8 9 9 11 13 16 18 17 15 15 15 14
9 9 9 11 12 12 12 13 13 13 14 13 12 12 11 11 12 12 13 15 16 17 17 17 18 19 19 20 19 18 18 19 19 20 21 24 26 27 26 26 26 26 25 25 25 24 23 23 23 23 24 24 24 23 23 23 23 23 24 24 23 22 21 20 19 19 19 17 16 16 13 9 8 9 10 11 10 12 15 16 17 18 17 16 16 16 15
9 10 11 13 14 14 13 12 11 11 12 13 13 13 13 13 15 16 16 17 17 17 17 18 19 20 21 21 21 19 18 18 18 18 21 25 26 27 27 27 27 27 26 25 25 25 24 24 24 24 25 26 26 25 25 25 24 24 25 24 24 23 23 23 21 20 19 17 16 15 12 7 7 10 11 11 12 15 18 19 20 20 18 18 18 17 15
9 10 12 12 12 12 12 12 12 12 13 14 16 16 15 16 17 18 19 19 19 18 19 19 20 21 22 21 22 21 20 18 18 20 23 25 26 27 27 27 27 26 26 26 26 26 25 24 23 23 23 25 25 25 25 24 24 24 24 24 24 24 24 24 23 21 19 17 16 14 10 8 8 9 10 12 15 16 18 21 22 19 17 19 17 15 14
8 9 10 11 11 10 11 13 15 15 15 16 18 18 17 18 17 16 17 19 19 19 19 18 18 19 19 20 22 21 20 19 21 24 25 26 27 27 27 27 26 26 27 26 26 26 25 24 24 24 25 25 25 25 25 24 24 24 24 23 24 24 24 24 23 21 19 17 13 10 9 11 12 11 11 14 16 19 22 23 21 18 20 20 15 13 14
9 11 12 12 11 11 12 14 16 16 15 16 17 17 17 17 17 15 15 16 17 16 17 19 19 17 17 19 20 19 18 21 24 25 25 25 25 25 25 25 25 25 25 25 25 26 25 24 25 25 25 25 25 24 24 24 24 24 24 23 23 23 23 23 22 21 19 14 11 12 14 15 17 19 20 19 19 21 24 23 20 19 20 19 14 13 14
11 12 13 12 12 13 15 16 16 15 14 14 15 15 15 16 17 17 16 16 17 16 15 18 21 19 18 19 19 17 18 22 24 24 24 24 24 24 24 24 24 25 25 25 25 26 25 25 25 25 25 25 25 24 24 24 24 25 25 24 24 24 23 22 21 20 17 14 15 18 19 18 18 21 25 25 23 22 21 19 18 18 18 16 15 15 15
11 11 12 12 13 14 14 14 14 13 13 14 14 15 17 18 18 19 17 16 17 17 15 16 19 20 20 20 20 18 19 22 23 23 23 24 24 24 24 24 25 26 26 26 26 25 24 24 25 25 25 26 25 25 25 25 25 25 26 26 26 25 22 21 19 17 14 15 18 21 21 21 19 19 20 21 21 22 21 19 18 19 17 15 14 15 14
10 10 11 12 13 13 12 12 11 12 15 17 15 15 18 20 20 19 18 16 16 18 17 15 16 19 19 19 19 19 20 21 22 22 22 24 24 24 24 24 25 26 25 25 26 26 26 25 25 24 24 25 26 26 26 26 26 26 26 27 26 25 23 20 16 15 17 21 23 23 22 22 21 19 18 19 20 21 21 19 17 17 16 14 12 12 12
9 9 10 11 12 12 11 12 13 13 16 18 17 15 18 21 20 18 17 15 13 14 14 14 15 16 17 17 18 19 19 20 21 21 21 22 23 23 24 25 25 25 25 25 25 25 24 24 23 24 25 27 28 28 27 28 28 27 27 27 25 25 25 21 18 19 22 24 24 23 23 24 24 22 22 23 23 22 20 18 16 16 15 14 12 11 12
8 8 9 10 12 12 12 14 14 12 13 16 16 15 17 18 16 12 11 12 12 13 13 14 15 15 16 16 17 18 18 18 19 20 20 21 22 23 24 24 24 24 23 23 23 22 22 22 23 23 23 24 24 24 25 26 26 26 25 24 23 23 24 22 22 24 26 26 25 25 26 27 27 26 26 25 23 21 19 17 15 14 14 14 13 13 12
8 9 10 10 11 12 12 13 11 9 11 14 15 14 14 14 12 11 11 12 12 12 13 14 15 15 15 16 16 16 16 16 17 18 19 20 20 21 21 21 22 21 20 20 18 16 15 15 15 15 14 15 16 17 20 23 23 21 20 19 18 19 21 24 27 29 29 27 26 27 28 28 26 25 24 22 20 19 18 16 15 15 14 14 14 13 11
10 11 12 11 10 11 11 10 8 8 10 11 12 11 12 12 11 10 11 12 11 11 13 14 15 15 15 16 17 16 15 15 15 16 16 16 16 16 18 18 18 16 12 9 7 6 9 11 11 8 6 5 4 7 11 13 15 19 22 23 24 25 29 31 32 30 28 27 28 29 29 26 24 23 21 20 18 17 17 16 16 15 14 13 13 12 11
12 13 13 11 9 10 10 8 7 8 9 9 10 10 11 11 11 11 11 11 11 12 14 15 15 15 16 17 17 16 14 14 13 13 12 11 10 9 7 3 1 1 4 8 10 13 16 18 17 13 11 11 12 14 18 19 21 24 26 27 29 31 34 34 32 30 29 30 30 29 26 23 21 20 19 18 17 16 16 16 15 14 13 12 11 10 10
12 13 12 9 9 10 9 8 8 8 8 8 9 9 10 11 11 11 11 11 12 14 16 16 15 16 18 19 18 17 15 13 12 13 14 12 8 7 10 15 17 16 17 18 18 20 20 20 21 17 15 17 19 21 25 27 27 26 26 27 30 32 34 34 32 31 32 32 29 25 23 22 21 20 19 19 17 16 15 14 13 12 11 10 8 8 9
11 11 10 8 8 9 8 7 7 7 7 8 8 9 10 11 11 11 11 12 14 15 16 16 17 20 21 18 17 18 18 14 13 16 17 13 9 12 17 20 22 24 25 24 24 24 23 22 22 22 20 21 23 24 25 27 28 28 27 28 30 32 33 34 35 34 33 29 25 23 22 21 21 19 17 17 16 15 14 13 11 10 10 9 8 8 8
9 7 6 7 7 6 6 6 6 6 7 8 9 10 11 11 12 12 13 14 14 15 16 18 20 22 21 19 20 23 20 14 11 14 16 14 14 19 23 24 26 29 30 30 28 27 25 23 22 22 22 23 25 26 26 27 29 29 29 30 30 31 32 33 32 30 27 24 23 23 21 20 19 17 15 15 15 14 13 11 10 10 9 9 8 8 8
6 3 4 7 7 6 7 7 6 6 7 7 7 8 10 11 12 13 13 14 14 15 17 20 21 21 20 21 24 25 21 16 14 17 19 19 20 23 25 26 27 27 28 29 29 26 23 23 23 22 23 24 24 23 23 24 25 25 26 27 26 26 27 25 22 20 19 19 20 19 16 15 15 15 13 13 13 12 11 10 9 9 9 8 8 7 5
3 4 6 7 7 8 9 8 7 7 7 7 7 8 10 12 12 13 13 14 14 15 18 20 20 20 21 21 22 22 22 20 19 20 21 20 20 23 26 26 24 22 22 24 27 26 23 22 23 23 24 26 25 23 21 21 21 21 22 23 22 21 20 19 16 15 17 19 20 20 19 17 15 12 12 12 12 11 10 10 8 8 7 7 7 6 5
5 7 7 7 8 8 8 8 8 8 8 8 8 9 10 11 11 12 12 13 14 15 17 19 18 17 18 20 20 21 24 24 21 20 20 19 19 23 27 26 24 22 20 20 23 25 25 23 22 23 26 27 26 24 22 21 21 20 20 19 18 17 17 17 17 17 18 18 18 18 17 16 14 13 12 12 12 11 10 10 9 8 7 6 5 5 4
7 7 7 7 7 7 7 7 8 8 8 8 8 9 9 9 9 10 11 12 12 13 15 16 14 14 15 17 18 20 25 27 25 23 22 22 24 27 29 27 25 23 20 17 18 22 26 24 21 21 23 24 25 26 24 21 20 21 20 18 15 15 16 17 17 17 16 16 15 14 13 12 12 12 12 12 12 11 10 9 8 7 6 5 5 4 3
5 6 6 6 6 6 7 7 7 7 8 8 8 8 8 8 8 9 10 10 11 12 13 14 13 12 13 14 15 17 21 27 28 26 24 23 24 26 27 26 25 23 21 19 19 23 26 25 22 21 21 20 21 23 24 22 21 21 20 18 16 15 15 16 16 16 16 15 15 14 14 13 13 12 12 11 11 11 10 10 9 7 5 4 4 3 3
5 5 5 5 5 5 6 6 5 6 7 8 8 9 9 9 9 10 10 10 10 11 12 13 13 13 13 13 13 14 17 22 26 26 23 21 21 22 23 24 25 25 25 26 27 27 27 26 23 22 22 21 19 19 20 21 20 20 19 17 16 16 15 15 15 15 14 14 14 14 14 13 13 13 12 11 11 10 9 9 8 6 5 4 3 3 3
4 4 4 3 3 4 4 4 4 5 6 6 7 8 9 9 9 10 10 10 10 11 11 12 13 13 12 12 12 13 14 17 20 22 22 21 20 19 18 20 23 25 27 29 31 31 30 29 26 23 21 20 20 19 18 18 18 18 18 17 17 16 15 15 15 14 13 13 13 13 13 12 12 12 11 11 10 9 9 8 7 5 4 3 3 3 2
5 4 3 2 2 2 2 2 3 4 5 5 6 7 8 8 9 9 10 10 10 10 10 11 12 12 12 12 11 12 13 14 15 18 21 22 20 18 15 16 21 25 27 29 31 32 32 31 30 27 22 20 20 19 18 18 17 18 17 17 17 16 15 15 14 14 13 13 13 13 12 11 11 11 11 10 10 9 8 7 6 5 4 3 3 3 2
6 6 4 3 1 0 1 1 2 3 4 5 6 7 7 7 8 8 9 10 10 11 10 11 11 12 13 13 12 12 13 13 13 14 16 18 20 20 17 15 18 22 24 26 28 30 30 29 28 26 24 21 20 19 18 18 18 17 17 16 16 15 15 14 14 13 13 13 13 12 12 11 11 10 10 10 9 8 7 6 6 5 4 4 3 3 2
8 7 5 4 3 3 1 0 1 3 4 5 6 6 7 7 8 8 9 9 10 11 11 11 11 11 11 12 12 12 13 13 13 12 11 13 16 19 20 18 18 20 21 21 22 24 26 26 25 24 23 22 21 19 18 18 17 17 16 16 15 15 14 14 13 13 13 13 12 12 11 11 11 10 10 10 9 8 7 7 6 6 5 4 4 4 3
9 8 6 6 6 4 2 1 2 2 3 4 4 6 6 6 7 8 8 9 9 10 10 11 11 11 11 10 10 11 12 13 14 13 12 11 11 14 16 17 18 19 20 18 17 19 21 23 23 23 23 22 20 19 18 17 17 16 16 16 15 15 14 14 14 13 13 12 12 11 11 11 10 10 10 9 9 8 8 7 7 7 6 6 6 5 4
9 9 9 8 6 3 2 2 1 1 1 1 2 4 5 6 6 7 8 8 9 9 10 10 11 12 12 11 9 9 10 12 13 14 13 12 11 10 12 14 16 18 19 19 18 18 20 21 22 22 22 21 19 18 17 17 16 16 16 15 15 14 14 14 14 13 12 12 11 11 10 10 10 10 10 9 9 9 8 8 8 7 7 7 7 6 5
10 9 9 8 6 4 4 3 2 2 2 2 1 4 4 4 5 6 6 7 7 8 9 10 11 11 12 12 11 10 9 10 11 12 12 11 11 11 11 12 12 14 17 19 19 19 20 20 21 21 21 19 18 17 17 16 16 16 15 15 14 14 13 13 13 12 12 12 12 11 10 10 10 9 9 9 9 8 8 8 8 8 8 8 7 7 6
11 10 9 8 7 7 6 5 5 4 3 1 1 2 3 2 3 3 4 4 5 6 7 8 9 10 11 12 12 12 11 10 9 10 10 10 10 10 11 12 12 11 12 14 16 18 19 19 19 19 18 17 16 16 16 16 16 15 15 14 14 13 12 12 11 11 11 11 10 10 10 10 9 9 9 9 8 8 8 7 7 7 7 7 7 7 6
11 10 9 9 9 8 7 7 7 6 4 4 3 3 3 2 2 2 3 4 4 4 6 6 7 8 9 10 10 11 11 11 10 9 9 10 10 9 10 11 13 12 10 10 12 14 16 17 18 18 17 16 15 15 15 15 15 15 14 13 13 12 12 12 11 11 10 10 10 10 9 9 8 8 8 8 8 8 7 7 7 7 7 6 6 6 6
11 12 11 10 10 10 10 9 8 6 5 5 4 3 4 4 2 3 4 3 3 4 5 6 6 7 7 8 9 9 9 10 9 9 9 10 10 10 10 10 11 12 11 11 11 12 13 14 15 15 15 15 15 15 14 14 14 14 13 12 12 11 11 11 11 11 10 10 9 9 9 9 8 8 8 8 7 7 7 7 8 9 8 7 6 6 6
12 13 12 12 11 11 11 10 8 5 5 5 5 4 4 3 2 4 3 1 1 3 4 5 5 6 7 7 8 8 7 7 8 8 7 8 8 9 9 9 10 10 11 11 11 11 12 13 14 14 14 13 13 13 13 13 13 12 12 12 11 10 10 10 10 10 10 9 9 9 9 8 8 8 8 7 7 7 7 7 7 8 9 9 8 6 6
14 13 12 12 12 12 12 11 8 6 6 7 7 6 5 5 5 6 4 1 0 3 5 5 6 6 6 6 7 7 7 7 7 7 7 7 7 8 8 8 8 9 9 10 10 10 10 11 12 13 12 12 12 12 12 12 11 11 11 11 10 9 9 9 9 9 9 9 8 8 8 8 7 7 7 7 7 7 7 7 7 7 8 10 11 10 9
Wind_Direction
263 266 270 274 274 273 274 272 269 269 270 267 263 260 264 270 270 270 281 289 284 283 287 284 277 251 238 245 243 237 235 220 205 204 201 196 194 192 182 153 132 125 120 113 107 103 100 99 99 97 96 96 96 96 92 86 77 68 60 54 51 54 50 40 40 42 39 32 357 321 315 317 308 299 291 284 282 277 268 259 253 253 253 247 236 234 235
271 271 271 270 270 271 270 269 269 267 264 263 263 264 265 265 266 269 277 283 281 281 284 287 287 278 267 267 252 237 233 226 218 217 218 219 216 210 200 176 149 133 124 123 120 113 102 93 96 96 93 96 98 96 95 93 86 75 65 56 47 44 39 26 17 16 12 0 330 303 303 307 303 301 295 282 277 277 270 261 256 252 250 246 239 235 233
274 275 277 275 271 272 271 269 267 265 264 263 262 264 266 265 266 269 274 280 284 285 283 279 275 272 269 266 258 249 235 222 221 225 230 235 233 222 207 185 162 147 138 131 121 113 106 98 99 100 102 111 112 108 102 98 92 82 70 65 55 33 23 7 354 351 342 329 320 313 311 305 294 288 279 267 260 259 257 254 255 254 250 246 242 237 235
270 271 273 274 274 274 270 265 264 263 262 262 262 262 265 266 270 274 276 277 279 282 283 284 281 276 269 263 261 260 251 238 235 236 236 240 241 222 202 198 187 164 145 129 115 107 109 113 110 105 108 117 114 110 106 105 106 105 100 108 124 11 358 337 327 327 318 308 304 302 295 288 281 272 266 262 255 251 251 251 256 259 258 255 245 232 227
275 274 273 278 280 274 267 268 275 271 265 265 265 262 262 265 269 274 275 274 279 287 291 293 294 290 283 276 271 271 269 258 246 242 240 241 241 224 202 202 195 167 139 123 115 108 106 112 94 78 73 78 87 91 93 103 113 114 119 141 190 241 257 277 286 295 300 296 291 288 284 283 280 269 261 259 255 254 251 247 251 254 256 260 246 217 212
273 276 281 282 272 261 261 289 319 293 280 276 275 273 273 275 278 285 287 287 294 301 300 292 292 292 295 302 305 301 296 277 246 242 247 244 232 207 187 185 177 154 132 115 111 114 120 98 53 15 23 81 98 124 134 120 111 104 161 192 217 241 258 273 278 284 294 296 295 293 290 288 284 275 267 261 257 258 255 247 242 240 245 249 240 228 225
272 278 279 266 256 260 273 289 296 291 289 285 283 284 283 284 291 299 297 293 296 303 308 308 304 298 296 307 322 315 311 307 272 257 256 247 211 177 173 171 150 126 125 122 118 129 123 87 331 278 237 127 170 200 172 162 193 228 247 254 255 261 276 286 288 291 297 301 301 298 295 291 285 278 269 260 257 256 254 250 242 237 239 236 234 238 231
265 267 258 252 262 279 276 257 257 280 281 278 279 279 277 281 299 308 306 307 304 299 302 311 315 312 300 283 291 358 10 351 319 287 270 246 193 172 165 156 138 114 246 250 215 185 290 293 277 273 281 296 277 260 244 235 235 241 260 273 276 288 299 298 295 297 300 304 304 301 298 292 284 279 270 258 253 251 251 253 247 241 240 233 229 227 205
260 262 258 258 271 275 262 244 33 348 300 292 294 288 286 292 307 307 306 313 313 302 297 300 306 317 305 275 248 67 52 31 8 356 353 356 186 181 168 168 201 244 262 264 252 226 255 271 280 287 289 285 281 275 268 257 254 260 267 274 283 293 297 295 296 297 297 297 298 298 298 293 286 282 274 260 253 248 246 247 244 243 242 236 226 207 180
257 264 265 263 264 266 261 92 69 40 359 341 330 296 287 310 355 334 317 316 320 314 307 309 313 312 296 277 248 125 109 50 29 5 355 11 1 223 204 223 251 258 256 262 268 271 272 273 275 276 275 277 277 275 272 266 266 269 271 275 281 288 291 289 286 284 284 286 289 290 291 292 291 286 277 265 256 249 245 244 241 242 240 226 205 192 184
256 256 260 262 259 266 50 56 43 36 19 358 329 285 271 27 32 1 339 331 335 328 317 315 313 296 283 288 19 30 329 314 347 335 309 305 314 298 267 261 266 267 269 279 282 279 273 269 272 273 272 272 272 271 272 270 269 272 274 276 279 283 288 287 282 280 280 279 280 282 285 288 289 286 279 269 258 252 252 250 246 247 238 211 179 176 186
253 252 254 261 259 1 53 24 358 11 15 353 311 274 291 14 4 350 339 327 327 327 318 312 299 285 291 320 359 350 321 298 289 291 290 290 291 283 273 269 270 270 273 276 275 275 273 271 273 272 270 268 267 267 268 267 265 267 270 273 277 282 284 282 279 278 278 277 277 278 282 285 285 282 277 269 261 256 255 253 252 252 226 184 163 165 173
254 254 257 261 259 51 38 8 340 331 323 300 275 273 343 350 325 326 329 317 317 317 311 305 294 290 304 319 313 303 298 290 286 289 292 290 285 281 280 284 287 284 280 276 275 275 275 274 273 271 269 267 265 264 263 262 262 265 268 271 273 277 279 279 277 276 275 278 280 279 281 282 280 278 274 268 262 257 256 259 259 237 168 147 151 161 161
255 255 262 264 256 28 12 350 333 313 290 271 288 322 336 324 317 321 316 306 310 313 305 301 299 299 303 305 301 298 298 298 297 293 292 289 285 282 281 281 280 279 277 278 279 278 276 274 272 270 268 266 265 266 264 263 265 267 268 269 270 271 273 272 272 271 271 273 275 276 277 277 276 275 271 264 259 257 258 255 201 166 150 145 152 156 149
259 254 255 260 255 20 358 341 333 317 298 304 324 328 317 310 313 315 307 301 303 303 300 299 298 298 299 298 295 291 292 293 290 285 283 282 282 282 281 280 279 281 282 283 282 281 280 276 273 271 269 268 268 267 266 267 270 270 269 269 269 269 270 271 269 268 265 265 266 266 266 269 272 272 269 266 261 250 224 150 134 139 143 148 151 146 138
270 254 252 269 318 338 327 321 310 302 308 314 314 310 306 306 304 300 298 300 301 300 298 296 294 293 292 291 290 289 287 285 284 281 280 280 280 280 278 278 279 282 285 284 281 280 277 274 272 270 269 270 269 269 269 270 271 272 272 271 270 269 268 267 265 262 259 259 259 258 258 260 264 268 270 269 249 205 168 146 142 143 141 142 141 136 133
284 271 276 297 306 302 305 307 299 297 301 303 303 299 296 296 296 295 295 295 297 298 295 291 289 288 288 289 289 288 287 286 285 285 284 283 282 282 282 281 280 280 282 282 282 281 278 276 274 272 272 272 272 272 274 274 272 272 271 269 269 271 270 267 263 259 257 256 255 254 253 254 262 269 264 223 168 159 157 156 157 154 148 144 142 139 140
290 279 277 286 291 295 301 299 296 299 299 297 296 294 292 294 297 298 296 294 294 295 293 289 285 283 284 285 284 283 283 282 282 282 282 281 281 280 280 281 281 280 280 280 280 279 277 275 274 273 271 271 270 271 272 269 266 266 266 265 263 264 266 267 265 261 258 257 255 253 251 254 264 265 232 186 167 160 165 168 161 152 147 147 147 144 141
285 280 282 291 295 297 299 297 296 297 295 293 294 294 295 300 299 294 292 293 292 290 286 284 283 282 282 283 282 282 281 279 278 278 278 277 278 278 278 279 279 279 278 278 277 276 275 274 272 272 271 269 268 270 270 268 267 266 266 265 264 262 263 264 263 261 259 258 258 258 255 252 251 238 214 199 183 169 171 170 157 147 144 142 141 138 132
280 286 292 294 293 292 293 293 295 298 299 303 309 310 308 304 297 291 290 289 287 285 282 280 282 283 282 281 280 280 278 277 277 277 276 276 278 279 279 280 281 279 278 278 278 278 278 277 275 274 274 272 271 271 271 271 272 270 267 265 264 262 261 259 258 259 260 258 258 259 252 234 221 221 214 201 183 176 176 167 151 146 146 142 140 143 141
282 285 291 297 298 297 296 299 305 311 313 311 308 305 301 296 291 290 289 287 285 284 285 286 286 284 283 282 281 281 279 278 278 278 279 281 281 280 280 281 282 281 280 280 280 279 279 278 276 274 273 273 271 269 268 267 267 267 266 265 263 260 257 256 257 257 256 256 258 254 234 199 189 199 200 188 172 163 163 156 146 143 147 144 143 146 144
283 291 305 313 309 299 297 304 309 311 311 306 301 299 298 296 295 296 296 293 288 285 285 286 284 282 282 282 280 280 279 279 280 281 282 281 280 280 281 281 279 278 278 277 278 278 277 276 275 273 272 272 270 268 267 265 263 262 261 261 260 257 253 252 252 249 247 247 245 229 193 162 148 149 161 169 158 144 144 146 140 138 145 145 143 139 132
290 299 309 313 305 294 297 305 308 309 308 305 302 304 304 302 302 303 301 296 291 289 287 286 284 282 284 284 281 279 278 278 278 280 280 281 283 284 284 282 281 280 280 280 280 279 278 278 278 276 275 273 269 267 266 263 259 257 255 254 254 252 249 247 245 242 241 235 208 179 162 148 137 129 127 130 133 134 139 140 133 132 140 142 140 142 139
291 298 306 309 303 301 306 308 308 308 307 304 303 303 303 301 301 301 298 294 293 294 293 290 288 286 287 287 285 282 281 281 282 284 286 288 289 290 288 285 283 282 283 282 281 281 281 281 280 277 275 273 269 266 263 259 254 253 250 248 247 246 245 245 241 236 229 209 179 163 155 146 138 130 123 118 116 122 131 136 134 135 140 141 140 146 150
305 307 313 311 304 302 303 301 300 301 302 303 305 305 305 305 304 303 302 298 295 295 294 291 290 289 290 292 291 289 287 286 288 291 292 290 288 287 287 285 283 282 283 283 282 283 283 282 280 278 276 273 268 264 260 255 252 249 246 244 242 239 239 241 237 224 202 177 164 159 153 145 139 136 132 126 119 118 122 128 131 133 137 139 140 140 140
306 307 311 308 301 298 297 297 300 307 311 311 308 307 310 309 305 301 300 297 298 301 301 299 298 298 298 298 297 296 294 293 293 293 291 288 287 285 285 284 283 282 283 283 282 282 282 281 281 279 277 272 265 261 257 253 249 245 241 238 235 231 230 229 218 193 170 160 158 156 150 144 141 138 137 135 129 122 119 118 117 117 120 127 134 135 133
307 312 316 309 302 302 308 310 308 312 318 318 313 312 317 315 308 302 301 305 315 321 318 315 314 312 308 307 306 305 302 300 298 295 291 290 289 286 284 284 283 283 282 282 281 282 283 284 282 279 275 270 263 258 254 249 245 241 236 233 230 225 220 211 191 169 157 151 151 148 140 135 134 133 131 130 128 125 123 120 117 115 118 125 134 139 139
315 318 315 307 303 306 311 310 306 315 333 333 326 326 330 331 331 333 333 335 339 336 330 327 326 321 316 314 313 310 306 302 298 295 292 290 289 287 287 286 283 282 281 281 282 284 286 286 283 278 273 267 261 255 248 242 239 236 229 225 222 216 207 191 169 155 149 145 144 141 135 132 134 136 135 133 132 133 135 135 132 130 130 133 138 141 140
324 322 316 308 306 308 307 303 308 333 352 346 339 340 342 345 352 356 351 347 343 337 336 336 332 326 323 321 317 313 308 304 301 300 298 296 293 290 288 284 281 280 281 280 282 289 296 296 292 286 279 272 263 254 247 242 235 221 204 195 189 180 170 158 148 144 144 143 142 138 135 134 138 144 146 145 144 147 150 149 147 144 141 141 143 142 143
323 323 318 313 315 319 316 315 333 2 1 347 346 352 352 353 358 357 352 352 350 345 343 341 337 336 336 330 325 323 318 314 314 311 303 298 296 292 286 277 270 269 276 285 301 337 357 353 345 339 331 310 266 219 211 211 197 175 162 156 151 145 143 143 142 141 139 138 137 138 138 138 143 149 153 153 154 155 154 155 155 150 148 155 161 158 157
318 318 318 319 326 329 329 340 7 15 6 356 359 4 5 7 9 6 4 4 0 355 354 352 350 351 347 339 338 340 335 327 325 324 322 323 325 324 325 324 198 145 55 45 38 30 24 13 6 17 51 68 79 98 111 118 124 128 133 136 137 137 138 138 137 135 134 134 136 138 139 140 142 147 150 156 161 161 156 158 160 156 157 167 169 157 152
316 319 325 333 339 338 346 10 21 15 14 16 15 16 18 18 15 10 9 8 5 3 3 359 355 352 348 345 349 354 351 340 338 347 358 6 13 29 52 68 73 67 57 49 39 32 26 14 6 20 58 78 81 87 96 101 103 107 113 120 125 129 131 132 130 130 130 132 132 132 135 141 148 156 162 166 167 160 155 157 160 159 159 154 135 125 140
321 325 334 344 347 348 2 24 29 27 30 30 25 23 22 18 15 11 7 4 4 5 2 356 352 351 351 352 359 4 2 360 1 5 9 16 38 56 59 62 63 59 53 48 40 34 28 19 14 26 50 70 78 83 89 94 96 98 102 107 113 118 123 124 123 123 124 127 132 137 143 150 156 162 166 164 156 148 151 159 160 155 145 126 110 121 153
329 331 346 1 4 8 21 33 43 48 42 31 25 24 20 14 11 9 6 5 5 3 355 348 347 350 356 5 14 13 12 12 14 12 14 26 47 56 57 58 59 57 52 46 40 33 29 28 32 40 51 63 74 80 82 84 88 92 96 101 106 113 117 120 123 128 134 140 145 148 151 154 155 155 155 152 147 147 153 157 152 143 130 112 110 136 162
336 358 45 48 48 55 56 54 54 53 41 25 14 13 13 12 10 8 7 6 4 357 349 345 346 353 4 16 19 16 13 14 16 18 24 34 45 52 55 55 53 51 48 42 35 29 27 32 42 51 59 65 73 78 80 83 88 92 97 102 107 114 122 130 136 139 137 134 132 128 124 127 136 143 144 140 136 136 138 137 134 133 127 114 115 133 146
24 77 82 76 75 76 72 66 60 51 38 21 4 2 8 10 9 6 5 5 1 355 350 348 350 359 10 17 18 15 13 14 17 22 29 37 45 53 56 52 46 42 41 35 27 23 24 31 42 54 62 65 70 76 83 90 94 97 102 105 104 109 122 129 124 111 102 100 102 100 96 96 103 112 116 116 114 113 116 114 110 110 113 110 112 119 119
69 83 91 93 87 78 67 57 49 42 35 24 12 7 6 6 6 6 7 5 3 358 353 351 354 3 11 14 17 17 16 17 21 28 34 39 46 51 52 46 39 36 35 26 18 21 26 31 41 53 59 60 62 70 83 94 98 100 106 108 100 96 103 106 98 92 93 94 94 96 97 96 94 92 94 98 99 98 100 101 98 96 96 94 97 109 118
77 84 87 84 77 68 59 49 38 30 29 29 23 17 12 10 11 11 10 11 10 4 357 355 1 11 17 18 19 19 16 16 21 28 32 37 44 49 48 43 36 34 30 19 14 24 32 35 41 51 55 54 56 64 76 87 92 96 103 106 96 83 84 87 85 85 88 89 89 91 93 95 94 91 89 89 88 87 87 88 89 91 95 98 103 110 112
98 98 87 73 61 53 50 44 30 19 18 20 23 24 21 18 18 14 12 14 16 11 4 3 9 20 26 26 25 22 18 17 20 23 28 35 45 52 52 47 40 36 34 31 29 32 36 38 42 46 48 48 52 60 70 79 85 88 93 94 86 77 78 83 83 82 82 84 85 86 85 84 84 85 85 85 86 87 87 86 84 82 84 95 104 98 82
122 110 95 83 66 51 43 34 25 22 19 16 19 24 23 21 20 17 14 13 16 18 16 13 13 21 29 30 31 33 31 26 23 22 25 33 43 50 50 43 36 33 37 41 41 40 39 39 41 42 42 43 47 54 63 73 80 82 82 79 75 74 76 80 83 85 86 86 87 86 84 83 83 83 83 84 85 85 85 84 84 82 81 81 82 76 71
141 127 114 97 69 48 36 26 26 30 24 19 23 28 26 25 24 20 15 11 11 17 23 23 19 20 26 30 34 41 46 42 36 31 31 34 38 43 45 37 28 30 38 44 45 45 44 42 41 39 37 39 46 52 60 69 76 78 77 74 73 73 73 74 76 80 83 86 88 89 88 87 87 85 84 84 83 83 83 82 79 75 73 71 68 68 69
168 165 157 123 79 32 13 28 38 34 27 27 31 31 30 30 29 26 22 17 11 12 23 28 26 24 27 30 33 36 41 46 46 44 44 42 40 41 43 34 26 30 39 45 47 48 48 46 44 43 40 40 45 51 57 64 70 73 73 73 73 74 75 75 75 76 78 80 83 84 86 88 89 88 87 87 85 83 84 86 84 75 64 59 58 57 50
190 196 192 168 150 267 334 20 39 36 33 33 33 31 33 34 30 27 26 23 17 16 21 24 25 26 29 32 34 34 34 37 41 47 50 50 45 43 42 34 27 32 39 44 45 47 47 46 45 46 46 46 49 52 55 60 64 68 70 71 72 74 76 76 75 76 76 77 79 81 82 85 86 87 87 87 86 83 81 81 81 76 68 60 54 44 34
204 210 206 195 203 212 210 58 40 42 43 41 34 30 31 35 32 28 27 26 23 22 23 23 25 27 29 33 38 37 33 31 33 38 45 49 44 39 35 33 31 34 39 43 43 43 43 43 45 46 47 49 50 52 55 58 60 63 66 69 71 74 76 76 76 76 76 78 79 81 80 80 82 83 84 84 84 84 83 79 76 75 70 62 54 44 32
204 208 207 213 220 215 180 102 72 60 51 49 46 38 32 31 33 31 29 28 28 28 28 29 28 27 26 31 43 49 46 41 39 39 43 48 44 34 29 30 32 35 40 44 44 41 41 43 46 47 47 48 48 49 52 55 57 59 62 64 66 70 72 74 74 75 77 80 81 81 81 82 81 81 82 83 83 82 81 78 76 73 66 58 52 44 32
201 202 208 218 223 205 149 120 103 82 14 4 65 61 43 31 33 37 35 33 32 33 35 36 35 31 28 28 36 50 56 55 51 49 52 57 57 45 34 33 36 39 43 46 46 43 43 45 47 47 47 47 47 48 50 51 52 55 57 57 59 63 66 68 71 73 75 78 80 82 83 85 85 85 86 86 84 81 80 76 71 67 62 55 49 41 34
206 205 205 209 208 189 175 174 178 200 249 283 58 75 61 40 37 44 43 40 40 41 41 40 39 36 34 33 33 37 43 52 55 53 52 56 59 53 40 35 40 46 48 50 51 51 50 49 47 46 46 46 46 48 49 49 51 53 54 55 56 60 62 65 70 73 74 78 81 83 84 86 87 89 90 87 81 77 74 70 65 60 55 50 46 39 33
212 214 206 199 198 195 188 193 214 224 221 188 96 93 86 69 62 61 53 46 49 53 51 47 44 40 38 39 40 37 36 42 52 52 46 46 53 55 47 42 45 54 57 55 54 54 53 50 48 47 46 46 48 48 49 49 50 52 55 56 57 59 61 65 68 71 75 78 80 81 84 87 88 87 85 83 80 74 68 63 61 57 50 44 41 36 30
211 215 207 197 199 199 194 204 226 227 192 160 155 159 161 180 180 118 77 58 54 58 57 56 54 50 46 45 46 43 41 45 52 54 49 45 48 52 50 45 44 47 54 58 57 53 50 49 48 47 46 46 48 49 49 51 52 53 55 58 59 59 60 63 66 69 74 77 79 81 85 86 84 83 83 82 78 73 66 57 51 48 45 41 37 32 29
211 211 206 202 202 201 201 210 222 211 180 171 176 173 179 201 194 112 88 81 75 71 63 59 60 59 55 53 53 51 49 50 51 51 51 51 49 47 47 45 41 42 48 55 57 53 48 45 45 46 46 47 47 47 48 51 54 54 54 57 58 57 57 58 60 64 69 73 78 82 83 80 75 77 82 80 73 69 67 58 47 41 40 43 41 33 30
219 215 210 208 206 202 205 217 226 210 175 173 180 179 185 189 133 99 94 131 139 95 85 75 69 65 61 59 59 56 53 54 53 48 49 54 54 49 46 45 43 43 45 49 52 53 52 48 46 45 45 46 47 47 48 51 55 56 55 55 54 53 54 55 56 58 63 70 74 77 79 79 76 75 77 76 71 65 64 61 53 45 44 48 49 45 39
228 225 220 217 213 208 206 212 218 209 192 187 184 181 188 182 147 127 129 191 153 104 103 95 80 69 62 63 65 63 58 59 60 56 53 57 58 55 51 48 46 45 46 49 50 52 52 51 48 46 43 43 45 49 51 53 55 57 56 54 53 52 55 60 62 62 66 75 80 78 76 80 84 83 80 76 71 64 60 59 57 52 51 54 56 55 53